Dauntless Aviation
Greetings, Guest! To participate, [sign up for a free account] or [log in]
Airports Europe Czech Republic
LKPO
PRV

Prerov

Prerov, CZECH REPUBLIC

Airport Info
Edit

Location

Latitude / Longitude: 49°25'32"N / 17°24'16"E
  49°25.548'N / 17°24.282'E
  49.4258 / 17.4047

Nearby radio navigation aids

CK PREROV NDB. 63.6° 2.8nm from CK to field.

Runway Information

Runway 06 /24

Dimensions: 8202 x 196 ft.
Surface: ASP
 
Runway 06
Runway 24
Latitude: 49.421419 49.430439
Longitude: 17.389275 17.420478
Elevation: 663 ft. 663 ft.
Runway true heading: 64.6 244.6
 

Instrument Procedures

  Aerodrome Chart

IAPs (Instrument Approach Procedures)

  ILS/DME Rwy 06
  NDB/DME (GPS) or PAR Rwy 06
  NDB (GPS) or PAR Rwy 06
  POLOM 3A

Departure Procedures

  Instrument Departure Chart HLV 1A - 2Z
  Instrument Departure Chart LUTIM 2A - 2Z
  Instrument Departure Chart MORKO 2Z
  Instrument Departure Chart POLOM 3A
Satellite photo at:
Airport distance calculator
From:
Weather Reports

METAR

LKMT
31.3nm NE
LKMT 240630Z 02009KT 2000 -RA BR OVC005 11/10 Q1018 BECMG 4000 -RA BR
LKTB
33.3nm SW
LKTB 240630Z 01005KT 320V050 9000 -RA FEW017 OVC026 12/09 Q1017 NOSIG

TAF

LKMT
31.3nm NE
TAF LKMT 240500Z 2406/2512 02010KT 4000 -RA BR BKN005 OVC012 BECMG 2406/2409 8000 BKN030 TEMPO 2412/2417 5000 SHRA BKN025 BECMG 2420/2422 5000 BR BKN005 TEMPO 2423/2507 3000 -DZ BR BKN003 BECMG 2507/2510 8000 BKN014
LKTB
33.3nm SW
TAF LKTB 240500Z 2406/2512 34006KT 9999 BKN020 PROB30 TEMPO 2411/2415 SHRA BKN030 BECMG 2415/2418 CAVOK BECMG 2423/2502 5000 BR NSC BECMG 2505/2508 CAVOK
Safelog

 

Dauntless Aviation

© 2007-2015 Dauntless Aviation, all rights reserved
Information provided via PilotNav comes from a variety of official and unofficial data sources. As errors are possible, do not use PilotNav for primary flight planning purposes. Verify any information that you receive via PilotNav with current and canonical charts and other official documents. The material in this database is subject to database copyrights held by Dauntless Aviation and may not be copied without the express permission of Dauntless Aviation - licenses for use of part of all of this data are available for purchase; enquire via the Dauntless Aviation helpdesk. A number of mechanisms and markers exist in the database to protect against and identify infringement / copyright. Automated queries against this website are stictly prohibited, and all activity is logged and analyzed.